Weather History for Seretse Khama, Botswana

Change the Weather History Date:

Saturday, November 17, 2012

  Actual Average Record
Temperature  
Mean Temperature 86 °F -  
Max Temperature 100 °F 86 °F 100 °F (2005)
Min Temperature 73 °F 63 °F 48 °F (2003)
Cooling Degree Days 22    
Growing Degree Days 36 (Base 50)    
Moisture  
Dew Point 45 °F    
Average Humidity 27    
Maximum Humidity 53    
Minimum Humidity 7    
Precipitation  
Precipitation 0.00 in - - ()
Sea Level Pressure  
Sea Level Pressure 29.97 in    
Wind  
Wind Speed 7 mph ()    
Max Wind Speed 15 mph    
Max Gust Speed 22 mph    
Visibility 6.2 miles    
Events      
Averages and records for this station are not official NWS values.
T = Trace of Precipitation, MM = Missing Value Source: Averaged Metar Reports

Daily Weather History Graph

Daily Weather History Graph

Search for Another Location

Airport:

Trip Planner

Search our weather history database for the weather conditions in past years. The results will help you decide how hot, cold, wet, or windy it might be!

Date:

Astronomy

Nov. 17, 2012 Rise Set
Actual Time 5:21 AM CAT 6:41 PM CAT
Civil Twilight 4:56 AM CAT 7:06 PM CAT
Nautical Twilight 4:27 AM CAT 7:36 PM CAT
Astronomical Twilight 3:56 AM CAT 8:06 PM CAT
Moon 8:45 AM CAT (11/17) 10:26 PM CAT (11/17)
Length of Visible Light 14h 10m
Length of Day
13h 20m
Waxing Crescent, 17% of the Moon is Illuminated
Nov 17
Waxing Crescent
Nov 20
First Quarter
Nov 28
Full
Dec 6
Last Quarter
Dec 13
New

Hourly Weather History & Observations

Time (CAT) Temp. Dew Point Humidity Pressure Visibility Wind Dir Wind Speed Gust Speed Precip Events Conditions
12:00 AM 78.8 °F 46.4 °F 32% 30.01 in - East 5.8 mph - N/A   Clear
1:00 AM 77.0 °F 46.4 °F 34% 30.01 in - SE 4.6 mph - N/A   Clear
2:00 AM 76 °F 54 °F 36%  in 6 mi East 15.0 mph - -   Mostly Cloudy
2:00 AM 77.0 °F 53.6 °F 44% 30.01 in - East 15.0 mph - N/A   Clear
3:00 AM 75.2 °F 53.6 °F 47% 30.01 in - SE 8.1 mph - N/A   Clear
4:00 AM 75.2 °F 53.6 °F 47% 30.01 in - East 6.9 mph - N/A   Clear
5:00 AM 73.4 °F 55.4 °F 53% 30.04 in - SSE 8.1 mph - N/A   Clear
6:00 AM 73.4 °F 55.4 °F 53% 30.04 in - East 8.1 mph - N/A   Clear
7:00 AM 75.2 °F 55.4 °F 50% 30.06 in - SE 6.9 mph - N/A   Clear
9:00 AM 82.4 °F 51.8 °F 35% 30.04 in - NNE 6.9 mph - N/A   Clear
11:00 AM 89.6 °F 50.0 °F 26% 30.04 in - North 10.4 mph - N/A   Clear
12:00 PM 93.2 °F 48.2 °F 21% 30.01 in - NNW 10.4 mph 21.9 mph N/A   Clear
1:00 PM 95.0 °F 46.4 °F 19% 29.98 in - West 9.2 mph - N/A   Clear
2:00 PM 98 °F 40 °F 7%  in 6 mi WSW 4.6 mph - -   Scattered Clouds
2:00 PM 98.6 °F 39.2 °F 13% 29.92 in 6.2 mi Variable 6.9 mph - N/A   Partly Cloudy
3:00 PM 100.4 °F 39.2 °F 12% 29.89 in 6.2 mi WSW 6.9 mph - N/A   Scattered Clouds
4:00 PM 100.4 °F 39.2 °F 12% 29.89 in 6.2 mi SW 9.2 mph - N/A   Scattered Clouds
5:00 PM 100.4 °F 39.2 °F 12% 29.86 in 6.2 mi NW 6.9 mph - N/A   Scattered Clouds
6:00 PM 98.6 °F 35.6 °F 11% 29.86 in 6.2 mi West 10.4 mph - N/A   Partly Cloudy
7:00 PM 95.0 °F 33.8 °F 12% 29.89 in 6.2 mi SW 6.9 mph - N/A   Partly Cloudy
8:00 PM 87 °F 34 °F 8%  in 6 mi WSW 3.5 mph - -   Scattered Clouds
8:00 PM 87.8 °F 33.8 °F 15% 29.92 in 6.2 mi WSW 3.5 mph - N/A   Partly Cloudy
9:00 PM 86.0 °F 39.2 °F 19% 29.92 in 6.2 mi WSW 4.6 mph - N/A   Partly Cloudy
10:00 PM 80.6 °F 41.0 °F 24% 29.95 in 6.2 mi East 5.8 mph - N/A   Partly Cloudy
11:00 PM 86.0 °F 42.8 °F 22% 29.98 in 6.2 mi NW 3.5 mph - N/A   Partly Cloudy